Weather in Polignano a Mare

Italy     40°59′37″N   17°13′19″E
temp.,
°C
wind,
m/s
gust,
m/s
humid.,
%
clouds,
%
prec.,
mm/h
press.,
hPa
HPBL,
m
29 january, sat
sat2901:00+10n12145638 5.8 10241340
04:00+9n14165118 0.0 10241511
07:00+9n14155125 0.0 10251517
10:00+9n13145437 0.0 10261737
13:00+9n1314525 0.0 10261662
16:00+8n1214505 0.0 10251696
19:00+9n1113455 0.0 10251472
22:00+10n1012440 0.0 10251166
30 january, sun
sun3001:00+10nnw79510 0.0 1024902
04:00+8wnw7106742 0.0 1023752
07:00+8wnw68685 0.0 1023434
10:00+10nw57650 0.0 1023551
13:00+11nnw44645 0.0 1021573
16:00+10nnw336643 0.0 1020355
19:00+9w12640 0.0 1021245
22:00+9w33560 0.0 1021232
31 january, mon
mon3101:00+8w44620 0.0 1021197
04:00+8wsw33650 0.0 1019175
07:00+8ssw22640 0.0 1018118
10:00+11sse34555 0.0 1016406
13:00+13s785975 0.0 10121019
16:00+11s7871100 0.0 1008765
19:00+12ssw81169100 0.1 1005631
22:00+11sw6870100 0.0 1003256
1 february, tue
tue101:00+11ssw71074100 0.1 1000396
04:00+9nw568599 1.2 999347
07:00+9wnw8990100 3.1 999531
10:00+9nnw151586100 0.8 10011111
13:00+8n161791100 2.7 10021326
16:00+9n101472100 2.4 10041511
19:00+9n17185693 2.6 10071647
22:00+9n1518555 0.0 10081361
2 february, wed
wed201:00+8n1315545 0.0 10081201
04:00+8nnw1213563 0.0 10081133
07:00+9nnw1114545 0.0 10081239
10:00+10nw1113598 0.0 10081403
13:00+10nw910595 0.0 1007940
16:00+10nnw811560 0.0 1007894
19:00+10nw9126068 0.0 10081114
22:00+11nw10126559 0.0 10101174